Find Starlink 31502

NORAD ID: 59301 Int'l Des: 2024-056 Owner: SPXS Country: US Constellation: starlink operational
LEOCIRCULAR

实时位置

正在加载3D地球...

关于 Starlink 31502

正在加载描述...

即将过境

Passes for default location (London). Set your location on the main map for personalized predictions.

高度历史

Loading altitude history...

两行轨道根数

1 59301U 24056F 26132.93610435 -.00000294 00000-0 -11552-5 0 9996
2 59301 42.9996 220.6358 0001263 273.7814 86.2894 15.27577130121064
Epoch: May 12, 2026 • Age: 13 hours

当前状态

高度 486.2 km
速度 7.63 km/s
星下点 39.72°N, 121.07°W
发射日期 Mar 24, 2024
运行时间 2.1 years
类型 internet

技术详情

分类 Payload
质量 730.00 kg
干质量 700.00 kg
总质量 730.00 kg
长度 0.30 m
直径 4.10 m
跨度 29.00 m
形状 Box + pan
制造商 SPXS
平台类型 Starlink V2M
阶段状态 In Orbit
所有者/国家 SPXS/US

Most Searched